EW4288 Weather Reports


time (UTC)temp
C
wind
direction
speed
KPH
gust
KPH
rain 1hr
cm
rain 24hr
cm
rain mn
cm
humidity
%
barometer
mb
20260504214517 25 56 6.4 16.1 0.00 0.00 0.00 31 1004.1
20260504213015 25 69 4.8 16.1 0.00 0.00 0.00 31 1004.2
20260504211512 25 55 8.0 14.5 0.00 0.00 0.00 33 1004.3
20260504210011 25 5 6.4 17.7 0.00 0.00 0.00 36 1004.3
20260504204511 25 42 8.0 16.1 0.00 0.00 0.00 35 1004.5
20260504203011 25 108 4.8 16.1 0.00 0.00 0.00 34 1004.5
20260504201507 24 101 4.8 14.5 0.00 0.00 0.00 34 1004.6
20260504200006 23 51 4.8 16.1 0.00 0.00 0.00 34 1004.6
20260504194504 24 95 8.0 16.1 0.00 0.00 0.00 34 1004.7
20260504193003 23 59 9.7 20.9 0.00 0.00 0.00 36 1004.8
20260504191501 23 109 8.0 17.7 0.00 0.00 0.00 35 1005.0
20260504190111 22 75 9.7 20.9 0.00 0.00 0.00 36 1005.0
20260504184615 23 65 9.7 19.3 0.00 0.00 0.00 39 1005.2
20260504183101 22 76 11.3 20.9 0.00 0.00 0.00 39 1005.2
20260504181556 22 70 9.7 24.1 0.00 0.00 0.00 39 1005.3
20260504180054 22 73 8.0 14.5 0.00 0.00 0.00 41 1005.3
20260504174552 21 35 6.4 17.7 0.00 0.00 0.00 41 1005.4
20260504173055 20 46 9.7 24.1 0.00 0.00 0.00 43 1005.4
20260504171547 18 76 11.3 19.3 0.00 0.00 0.00 44 1005.4
20260504081537 11 63 0.0 4.8 0.00 0.00 0.00 71 1004.6
20260504050019 16 164 0.0 3.2 0.00 0.00 0.00 55 1004.9
20260504044522 16 167 4.8 8.0 0.00 0.00 0.00 54 1004.9
20260504043018 16 178 4.8 8.0 0.00 0.00 0.00 52 1004.9
20260504041519 17 171 4.8 9.7 0.00 0.00 0.00 53 1004.8
20260504040017 17 164 3.2 6.4 0.00 0.00 0.00 51 1004.8
20260504034519 17 167 3.2 6.4 0.00 0.00 0.00 49 1004.7
20260504033016 18 169 4.8 8.0 0.00 0.00 0.00 48 1004.6
20260504031517 20 173 1.6 6.4 0.00 0.00 0.00 47 1004.6
20260504030035 21 197 1.6 4.8 0.00 0.00 0.00 42 1004.6
20260504024516 22 213 1.6 3.2 0.00 0.00 0.00 36 1004.6
20260504023014 23 275 0.0 1.6 0.00 0.00 0.00 33 1004.6
20260504021513 24 284 0.0 6.4 0.00 0.00 0.00 30 1004.7
20260504020012 25 5 1.6 6.4 0.00 0.00 0.00 28 1004.8
20260504014530 25 5 3.2 8.0 0.00 0.00 0.00 28 1005.0
20260504013009 25 325 3.2 14.5 0.00 0.00 0.00 27 1005.1
20260504011508 25 317 1.6 11.3 0.00 0.00 0.00 27 1005.2
20260504010007 25 345 6.4 14.5 0.00 0.00 0.00 27 1005.4
20260504004510 26 289 6.4 14.5 0.00 0.00 0.00 26 1005.6
20260504003012 26 272 3.2 12.9 0.00 0.00 0.00 28 1005.6
20260504001503 26 288 3.2 9.7 0.00 0.00 0.00 26 1005.8
20260504000002 26 254 1.6 16.1 0.00 0.00 0.00 25 1005.9
20260503234600 26 153 4.8 16.1 0.00 0.00 0.00 25 1006.0
20260503233100 26 287 6.4 14.5 0.00 0.00 0.00 25 1006.2
20260503231558 26 298 1.6 14.5 0.00 0.00 0.00 27 1006.4
20260503224552 26 317 6.4 14.5 0.00 0.00 0.00 25 1006.9
20260503223057 25 96 1.6 8.0 0.00 0.00 0.00 28 1007.1
20260503221552 26 246 3.2 14.5 0.00 0.00 0.00 24 1007.3
20260503220046 25 31 3.2 12.9 0.00 0.00 0.00 25 1007.6